| time (UTC) | temp F | wind direction | speed MPH | gust MPH | rain 1hr in | rain 24hr in | rain mn in | humidity % | barometer mb |
| 20260901122417 | 81 | 196 | 5.0 | 8.0 | 0.00 | 0.00 | 0.00 | 55 | 1018.4 |
| 20260901121916 | 81 | 135 | 3.0 | 4.0 | 0.00 | 0.00 | 0.00 | 56 | 1018.2 |
| 20260901121411 | 80 | 186 | 1.0 | 6.0 | 0.00 | 0.00 | 0.00 | 56 | 1018.3 |
| 20260901120907 | 80 | 187 | 2.0 | 6.0 | 0.00 | 0.00 | 0.00 | 56 | 1018.1 |
| 20260901120406 | 81 | 157 | 3.0 | 6.0 | 0.00 | 0.00 | 0.00 | 55 | 1018.0 |
| 20260901115902 | 81 | 155 | 0.0 | 6.0 | 0.00 | 0.00 | 0.00 | 55 | 1018.0 |
| 20260901115401 | 81 | 184 | 3.0 | 7.0 | 0.00 | 0.00 | 0.00 | 55 | 1018.0 |
| 20260901114859 | 81 | 183 | 2.0 | 11.0 | 0.00 | 0.00 | 0.00 | 55 | 1018.1 |
| 20260901114355 | 81 | 186 | 1.0 | 8.0 | 0.00 | 0.00 | 0.00 | 55 | 1018.0 |
| 20260901113853 | 82 | 191 | 2.0 | 3.0 | 0.00 | 0.00 | 0.00 | 54 | 1017.9 |
| 20260901113352 | 82 | 151 | 2.0 | 7.0 | 0.00 | 0.00 | 0.00 | 54 | 1017.8 |
| 20260901112848 | 82 | 194 | 5.0 | 7.0 | 0.00 | 0.00 | 0.00 | 54 | 1017.7 |
| 20260901112348 | 82 | 196 | 4.0 | 6.0 | 0.00 | 0.00 | 0.00 | 54 | 1017.8 |
| 20260901111842 | 82 | 198 | 4.0 | 4.0 | 0.00 | 0.00 | 0.00 | 54 | 1017.9 |
| 20260901111340 | 82 | 175 | 3.0 | 4.0 | 0.00 | 0.00 | 0.00 | 53 | 1017.8 |
| 20260901110840 | 82 | 212 | 4.0 | 6.0 | 0.00 | 0.00 | 0.00 | 53 | 1017.8 |
| 20260901110335 | 82 | 178 | 2.0 | 7.0 | 0.00 | 0.00 | 0.00 | 53 | 1017.7 |
| 20260901105831 | 82 | 195 | 3.0 | 7.0 | 0.00 | 0.00 | 0.00 | 52 | 1017.9 |
| 20260901105326 | 82 | 222 | 4.0 | 4.0 | 0.00 | 0.00 | 0.00 | 52 | 1017.7 |
| 20260901104823 | 81 | 204 | 5.0 | 7.0 | 0.00 | 0.00 | 0.00 | 52 | 1017.9 |
| 20260901104317 | 81 | 176 | 2.0 | 6.0 | 0.00 | 0.00 | 0.00 | 52 | 1017.9 |
| 20260901103813 | 81 | 194 | 1.0 | 6.0 | 0.00 | 0.00 | 0.00 | 52 | 1017.8 |
| 20260901103313 | 81 | 206 | 3.0 | 6.0 | 0.00 | 0.00 | 0.00 | 53 | 1017.8 |
| 20260901102808 | 80 | 151 | 1.0 | 4.0 | 0.00 | 0.00 | 0.00 | 54 | 1017.9 |
| 20260901102306 | 80 | 195 | 1.0 | 2.0 | 0.00 | 0.00 | 0.00 | 53 | 1017.7 |
| 20260901101758 | 80 | 147 | 0.0 | 1.0 | 0.00 | 0.00 | 0.00 | 54 | 1017.9 |
| 20260901101258 | 80 | 129 | 0.0 | 0.0 | 0.00 | 0.00 | 0.00 | 53 | 1017.4 |
| 20260901100757 | 80 | 184 | 0.0 | 2.0 | 0.00 | 0.00 | 0.00 | 53 | 1017.4 |
| 20260901100252 | 80 | 149 | 0.0 | 0.0 | 0.00 | 0.00 | 0.00 | 53 | 1017.5 |
| 20260901095750 | 80 | 174 | 1.0 | 2.0 | 0.00 | 0.00 | 0.00 | 53 | 1017.8 |
| 20260901095247 | 79 | 120 | 0.0 | 1.0 | 0.00 | 0.00 | 0.00 | 54 | 1017.5 |
| 20260901094737 | 79 | 151 | 0.0 | 0.0 | 0.00 | 0.00 | 0.00 | 53 | 1017.5 |
| 20260901094232 | 80 | 149 | 0.0 | 2.0 | 0.00 | 0.00 | 0.00 | 52 | 1017.5 |
| 20260901093727 | 80 | 150 | 0.0 | 1.0 | 0.00 | 0.00 | 0.00 | 51 | 1017.5 |
| 20260901093225 | 80 | 165 | 1.0 | 2.0 | 0.00 | 0.00 | 0.00 | 51 | 1017.4 |
| 20260901092722 | 80 | 179 | 1.0 | 1.0 | 0.00 | 0.00 | 0.00 | 52 | 1017.3 |
| 20260901092218 | 80 | 219 | 0.0 | 1.0 | 0.00 | 0.00 | 0.00 | 52 | 1017.5 |
| 20260901091713 | 80 | 163 | 1.0 | 3.0 | 0.00 | 0.00 | 0.00 | 52 | 1017.5 |
| 20260901091209 | 79 | 154 | 0.0 | 3.0 | 0.00 | 0.00 | 0.00 | 53 | 1017.5 |
| 20260901090703 | 78 | 145 | 0.0 | 0.0 | 0.00 | 0.00 | 0.00 | 55 | 1017.4 |
| 20260901090158 | 78 | 137 | 0.0 | 0.0 | 0.00 | 0.00 | 0.00 | 55 | 1017.2 |
| 20260901085654 | 78 | 139 | 0.0 | 0.0 | 0.00 | 0.00 | 0.00 | 55 | 1017.3 |
| 20260901085150 | 78 | 131 | 0.0 | 0.0 | 0.00 | 0.00 | 0.00 | 55 | 1017.3 |
| 20260901084645 | 78 | 133 | 0.0 | 0.0 | 0.00 | 0.00 | 0.00 | 55 | 1017.3 |
| 20260901084142 | 78 | 121 | 0.0 | 0.0 | 0.00 | 0.00 | 0.00 | 55 | 1017.2 |
| 20260901083641 | 78 | 137 | 0.0 | 0.0 | 0.00 | 0.00 | 0.00 | 55 | 1017.4 |
| 20260901083140 | 78 | 104 | 0.0 | 0.0 | 0.00 | 0.00 | 0.00 | 55 | 1017.2 |
| 20260901082634 | 78 | 131 | 0.0 | 0.0 | 0.00 | 0.00 | 0.00 | 55 | 1017.3 |
| 20260901082129 | 78 | 129 | 0.0 | 0.0 | 0.00 | 0.00 | 0.00 | 55 | 1017.1 |
| 20260901081625 | 78 | 120 | 0.0 | 0.0 | 0.00 | 0.00 | 0.00 | 55 | 1017.1 |
| 20260901081119 | 78 | 129 | 0.0 | 0.0 | 0.00 | 0.00 | 0.00 | 55 | 1016.9 |
| 20260901080614 | 78 | 129 | 0.0 | 0.0 | 0.00 | 0.00 | 0.00 | 54 | 1017.3 |
| 20260901080113 | 78 | 129 | 0.0 | 0.0 | 0.00 | 0.00 | 0.00 | 54 | 1017.2 |
| 20260901075609 | 78 | 105 | 0.0 | 0.0 | 0.00 | 0.00 | 0.00 | 54 | 1017.1 |
| 20260901075108 | 79 | 133 | 0.0 | 0.0 | 0.00 | 0.00 | 0.00 | 54 | 1017.1 |
| 20260901074608 | 79 | 108 | 0.0 | 0.0 | 0.00 | 0.00 | 0.00 | 53 | 1017.1 |
| 20260901074103 | 79 | 127 | 0.0 | 0.0 | 0.00 | 0.00 | 0.00 | 53 | 1017.2 |
| 20260901073600 | 79 | 129 | 0.0 | 0.0 | 0.00 | 0.00 | 0.00 | 54 | 1016.9 |
| 20260901073059 | 79 | 129 | 0.0 | 0.0 | 0.00 | 0.00 | 0.00 | 53 | 1017.1 |
| 20260901072555 | 79 | 120 | 0.0 | 0.0 | 0.00 | 0.00 | 0.00 | 52 | 1017.3 |
| 20260901072049 | 79 | 127 | 0.0 | 0.0 | 0.00 | 0.00 | 0.00 | 53 | 1017.1 |
| 20260901071544 | 79 | 135 | 0.0 | 0.0 | 0.00 | 0.00 | 0.00 | 53 | 1017.2 |
| 20260901071042 | 80 | 135 | 0.0 | 0.0 | 0.00 | 0.00 | 0.00 | 52 | 1017.2 |
| 20260901070537 | 80 | 135 | 0.0 | 0.0 | 0.00 | 0.00 | 0.00 | 51 | 1017.0 |
| 20260901070033 | 80 | 138 | 0.0 | 0.0 | 0.00 | 0.00 | 0.00 | 50 | 1017.1 |
| 20260901065527 | 81 | 137 | 0.0 | 0.0 | 0.00 | 0.00 | 0.00 | 50 | 1017.2 |
| 20260901065021 | 81 | 137 | 0.0 | 1.0 | 0.00 | 0.00 | 0.00 | 49 | 1017.2 |
| 20260901064519 | 82 | 141 | 0.0 | 1.0 | 0.00 | 0.00 | 0.00 | 48 | 1017.2 |
| 20260901064015 | 82 | 127 | 0.0 | 0.0 | 0.00 | 0.00 | 0.00 | 48 | 1017.1 |
| 20260901063512 | 82 | 119 | 0.0 | 0.0 | 0.00 | 0.00 | 0.00 | 48 | 1017.2 |
| 20260901063008 | 82 | 156 | 0.0 | 1.0 | 0.00 | 0.00 | 0.00 | 48 | 1017.3 |
| 20260901062503 | 82 | 127 | 0.0 | 0.0 | 0.00 | 0.00 | 0.00 | 48 | 1017.0 |
| 20260901061959 | 82 | 139 | 0.0 | 0.0 | 0.00 | 0.00 | 0.00 | 47 | 1017.0 |
| 20260901061454 | 83 | 132 | 0.0 | 0.0 | 0.00 | 0.00 | 0.00 | 47 | 1017.2 |
| 20260901060949 | 82 | 116 | 0.0 | 1.0 | 0.00 | 0.00 | 0.00 | 47 | 1017.1 |
| 20260901060444 | 82 | 97 | 0.0 | 0.0 | 0.00 | 0.00 | 0.00 | 47 | 1017.2 |
| 20260901055943 | 82 | 109 | 0.0 | 0.0 | 0.00 | 0.00 | 0.00 | 47 | 1017.1 |
| 20260901055440 | 83 | 143 | 0.0 | 0.0 | 0.00 | 0.00 | 0.00 | 47 | 1017.0 |
| 20260901054936 | 83 | 134 | 0.0 | 0.0 | 0.00 | 0.00 | 0.00 | 47 | 1017.2 |
| 20260901054434 | 83 | 143 | 0.0 | 0.0 | 0.00 | 0.00 | 0.00 | 47 | 1017.1 |
| 20260901053929 | 83 | 131 | 0.0 | 0.0 | 0.00 | 0.00 | 0.00 | 46 | 1017.0 |
| 20260901053425 | 84 | 145 | 0.0 | 0.0 | 0.00 | 0.00 | 0.00 | 45 | 1017.1 |
| 20260901052920 | 84 | 160 | 1.0 | 1.0 | 0.00 | 0.00 | 0.00 | 45 | 1017.1 |
| 20260901052415 | 84 | 153 | 1.0 | 1.0 | 0.00 | 0.00 | 0.00 | 45 | 1017.1 |
| 20260901051914 | 84 | 116 | 0.0 | 0.0 | 0.00 | 0.00 | 0.00 | 45 | 1017.1 |
| 20260901051410 | 84 | 132 | 0.0 | 0.0 | 0.00 | 0.00 | 0.00 | 44 | 1017.1 |
| 20260901050904 | 84 | 122 | 0.0 | 1.0 | 0.00 | 0.00 | 0.00 | 44 | 1017.0 |
| 20260901050400 | 84 | 125 | 1.0 | 1.0 | 0.00 | 0.00 | 0.00 | 44 | 1017.0 |
| 20260901045859 | 85 | 115 | 0.0 | 0.0 | 0.00 | 0.00 | 0.00 | 44 | 1016.9 |
| 20260901045354 | 85 | 131 | 1.0 | 1.0 | 0.00 | 0.00 | 0.00 | 43 | 1016.6 |
| 20260901044849 | 86 | 131 | 0.0 | 0.0 | 0.00 | 0.00 | 0.00 | 43 | 1016.9 |
| 20260901044346 | 86 | 168 | 0.0 | 2.0 | 0.00 | 0.00 | 0.00 | 42 | 1016.9 |
| 20260901043841 | 86 | 128 | 0.0 | 2.0 | 0.00 | 0.00 | 0.00 | 42 | 1016.8 |
| 20260901043337 | 87 | 142 | 0.0 | 1.0 | 0.00 | 0.00 | 0.00 | 41 | 1017.0 |
| 20260901042836 | 87 | 155 | 1.0 | 3.0 | 0.00 | 0.00 | 0.00 | 41 | 1016.9 |
| 20260901042331 | 87 | 125 | 0.0 | 1.0 | 0.00 | 0.00 | 0.00 | 41 | 1016.9 |
| 20260901041827 | 87 | 146 | 1.0 | 2.0 | 0.00 | 0.00 | 0.00 | 40 | 1016.7 |
| 20260901041322 | 87 | 162 | 3.0 | 3.0 | 0.00 | 0.00 | 0.00 | 40 | 1016.8 |
| 20260901040821 | 88 | 164 | 0.0 | 3.0 | 0.00 | 0.00 | 0.00 | 40 | 1016.9 |
| 20260901040320 | 88 | 130 | 1.0 | 2.0 | 0.00 | 0.00 | 0.00 | 39 | 1016.7 |
| 20260901035815 | 88 | 50 | 0.0 | 2.0 | 0.00 | 0.00 | 0.00 | 39 | 1016.7 |
| 20260901035314 | 88 | 186 | 0.0 | 3.0 | 0.00 | 0.00 | 0.00 | 40 | 1016.9 |
| 20260901034813 | 89 | 140 | 0.0 | 2.0 | 0.00 | 0.00 | 0.00 | 39 | 1016.7 |
| 20260901034308 | 89 | 195 | 3.0 | 4.0 | 0.00 | 0.00 | 0.00 | 38 | 1016.8 |
| 20260901033802 | 89 | 145 | 2.0 | 2.0 | 0.00 | 0.00 | 0.00 | 38 | 1016.6 |
| 20260901033301 | 89 | 110 | 2.0 | 8.0 | 0.00 | 0.00 | 0.00 | 38 | 1016.7 |
| 20260901032759 | 89 | 184 | 4.0 | 4.0 | 0.00 | 0.00 | 0.00 | 38 | 1016.9 |
| 20260901032254 | 89 | 152 | 0.0 | 2.0 | 0.00 | 0.00 | 0.00 | 38 | 1016.8 |
| 20260901031749 | 89 | 195 | 2.0 | 2.0 | 0.00 | 0.00 | 0.00 | 38 | 1016.7 |
| 20260901031244 | 89 | 129 | 2.0 | 3.0 | 0.00 | 0.00 | 0.00 | 38 | 1016.5 |
| 20260901030739 | 89 | 192 | 1.0 | 2.0 | 0.00 | 0.00 | 0.00 | 38 | 1016.6 |
| 20260901030234 | 89 | 175 | 2.0 | 3.0 | 0.00 | 0.00 | 0.00 | 38 | 1016.4 |
| 20260901025728 | 89 | 157 | 3.0 | 3.0 | 0.00 | 0.00 | 0.00 | 38 | 1016.5 |
| 20260901025223 | 89 | 155 | 0.0 | 1.0 | 0.00 | 0.00 | 0.00 | 38 | 1016.5 |
| 20260901024717 | 90 | 142 | 0.0 | 3.0 | 0.00 | 0.00 | 0.00 | 37 | 1016.3 |
| 20260901024217 | 89 | 149 | 1.0 | 2.0 | 0.00 | 0.00 | 0.00 | 38 | 1016.1 |
| 20260901023715 | 89 | 138 | 0.0 | 1.0 | 0.00 | 0.00 | 0.00 | 38 | 1016.3 |
| 20260901023210 | 90 | 127 | 1.0 | 2.0 | 0.00 | 0.00 | 0.00 | 37 | 1016.1 |
| 20260901022706 | 90 | 173 | 0.0 | 1.0 | 0.00 | 0.00 | 0.00 | 37 | 1016.2 |
| 20260901022201 | 90 | 60 | 1.0 | 1.0 | 0.00 | 0.00 | 0.00 | 37 | 1016.0 |
| 20260901021656 | 90 | 121 | 0.0 | 1.0 | 0.00 | 0.00 | 0.00 | 37 | 1015.7 |
| 20260901021151 | 91 | 125 | 0.0 | 0.0 | 0.00 | 0.00 | 0.00 | 36 | 1015.8 |
| 20260901020647 | 91 | 27 | 0.0 | 2.0 | 0.00 | 0.00 | 0.00 | 36 | 1015.8 |
| 20260901020142 | 91 | 44 | 0.0 | 1.0 | 0.00 | 0.00 | 0.00 | 35 | 1015.7 |
| 20260901015637 | 91 | 175 | 0.0 | 2.0 | 0.00 | 0.00 | 0.00 | 35 | 1015.5 |
| 20260901015137 | 92 | 110 | 2.0 | 2.0 | 0.00 | 0.00 | 0.00 | 34 | 1015.6 |
| 20260901014632 | 92 | 185 | 0.0 | 1.0 | 0.00 | 0.00 | 0.00 | 34 | 1015.5 |
| 20260901014128 | 93 | 147 | 1.0 | 6.0 | 0.00 | 0.00 | 0.00 | 33 | 1015.4 |
| 20260901013624 | 93 | 90 | 1.0 | 2.0 | 0.00 | 0.00 | 0.00 | 33 | 1015.5 |
| 20260901013119 | 93 | 135 | 0.0 | 4.0 | 0.00 | 0.00 | 0.00 | 33 | 1015.3 |
| 20260901012619 | 93 | 161 | 1.0 | 3.0 | 0.00 | 0.00 | 0.00 | 33 | 1015.3 |
| 20260901012114 | 93 | 147 | 0.0 | 3.0 | 0.00 | 0.00 | 0.00 | 33 | 1015.2 |
| 20260901011611 | 94 | 60 | 2.0 | 6.0 | 0.00 | 0.00 | 0.00 | 33 | 1015.3 |
| 20260901011109 | 94 | 113 | 2.0 | 2.0 | 0.00 | 0.00 | 0.00 | 32 | 1015.3 |
| 20260901010604 | 94 | 142 | 0.0 | 0.0 | 0.00 | 0.00 | 0.00 | 32 | 1015.1 |
| 20260901005558 | 95 | 31 | 1.0 | 8.0 | 0.00 | 0.00 | 0.00 | 31 | 1014.9 |
| 20260901005053 | 96 | 189 | 2.0 | 6.0 | 0.00 | 0.00 | 0.00 | 31 | 1014.9 |
| 20260901004552 | 96 | 174 | 3.0 | 6.0 | 0.00 | 0.00 | 0.00 | 31 | 1014.8 |
| 20260901004047 | 96 | 187 | 5.0 | 9.0 | 0.00 | 0.00 | 0.00 | 31 | 1015.0 |
| 20260901003543 | 97 | 183 | 1.0 | 2.0 | 0.00 | 0.00 | 0.00 | 31 | 1015.1 |
| 20260901003040 | 97 | 186 | 2.0 | 9.0 | 0.00 | 0.00 | 0.00 | 31 | 1015.0 |
| 20260901002540 | 97 | 239 | 2.0 | 4.0 | 0.00 | 0.00 | 0.00 | 30 | 1015.0 |
| 20260901002035 | 98 | 149 | 2.0 | 7.0 | 0.00 | 0.00 | 0.00 | 30 | 1014.8 |
| 20260901001530 | 98 | 160 | 1.0 | 4.0 | 0.00 | 0.00 | 0.00 | 30 | 1014.9 |
| 20260901001026 | 98 | 183 | 5.0 | 9.0 | 0.00 | 0.00 | 0.00 | 30 | 1014.9 |
| 20260901000525 | 98 | 104 | 1.0 | 9.0 | 0.00 | 0.00 | 0.00 | 30 | 1015.0 |
| 20260901000021 | 99 | 187 | 4.0 | 6.0 | 0.00 | 0.00 | 0.00 | 29 | 1014.9 |
| 20260831235515 | 98 | 181 | 4.0 | 7.0 | 0.00 | 0.00 | 0.00 | 29 | 1014.9 |
| 20260831235011 | 99 | 104 | 1.0 | 6.0 | 0.00 | 0.00 | 0.00 | 30 | 1015.0 |
| 20260831234505 | 99 | 197 | 2.0 | 3.0 | 0.00 | 0.00 | 0.00 | 29 | 1014.9 |
| 20260831234001 | 99 | 202 | 6.0 | 9.0 | 0.00 | 0.00 | 0.00 | 29 | 1014.8 |
| 20260831233455 | 100 | 196 | 1.0 | 6.0 | 0.00 | 0.00 | 0.00 | 29 | 1014.9 |
| 20260831232951 | 100 | 153 | 3.0 | 8.0 | 0.00 | 0.00 | 0.00 | 29 | 1014.8 |
| 20260831232446 | 100 | 195 | 4.0 | 6.0 | 0.00 | 0.00 | 0.00 | 29 | 1014.9 |
| 20260831231942 | 101 | 208 | 8.0 | 9.0 | 0.00 | 0.00 | 0.00 | 28 | 1015.0 |
| 20260831231439 | 100 | 98 | 2.0 | 4.0 | 0.00 | 0.00 | 0.00 | 29 | 1014.8 |
| 20260831230934 | 100 | 52 | 3.0 | 6.0 | 0.00 | 0.00 | 0.00 | 29 | 1014.9 |
| 20260831230429 | 100 | 190 | 4.0 | 7.0 | 0.00 | 0.00 | 0.00 | 29 | 1015.0 |
| 20260831225923 | 100 | 204 | 5.0 | 8.0 | 0.00 | 0.00 | 0.00 | 29 | 1015.1 |
| 20260831225419 | 100 | 169 | 4.0 | 8.0 | 0.00 | 0.00 | 0.00 | 29 | 1015.1 |
| 20260831224914 | 100 | 183 | 8.0 | 10.0 | 0.00 | 0.00 | 0.00 | 29 | 1015.1 |
| 20260831224413 | 100 | 203 | 6.0 | 13.0 | 0.00 | 0.00 | 0.00 | 30 | 1015.1 |
| 20260831223908 | 100 | 174 | 6.0 | 13.0 | 0.00 | 0.00 | 0.00 | 30 | 1015.1 |
| 20260831223404 | 101 | 181 | 4.0 | 7.0 | 0.00 | 0.00 | 0.00 | 29 | 1015.0 |
| 20260831222901 | 100 | 164 | 2.0 | 8.0 | 0.00 | 0.00 | 0.00 | 29 | 1014.9 |
| 20260831222356 | 101 | 205 | 6.0 | 9.0 | 0.00 | 0.00 | 0.00 | 29 | 1014.9 |
| 20260831221851 | 101 | 196 | 5.0 | 11.0 | 0.00 | 0.00 | 0.00 | 29 | 1015.1 |
| 20260831221347 | 101 | 210 | 4.0 | 4.0 | 0.00 | 0.00 | 0.00 | 28 | 1014.9 |
| 20260831220842 | 101 | 209 | 5.0 | 7.0 | 0.00 | 0.00 | 0.00 | 28 | 1015.1 |
| 20260831220337 | 102 | 193 | 8.0 | 11.0 | 0.00 | 0.00 | 0.00 | 28 | 1015.1 |
| 20260831215832 | 103 | 217 | 2.0 | 8.0 | 0.00 | 0.00 | 0.00 | 28 | 1015.0 |
| 20260831215327 | 102 | 246 | 4.0 | 11.0 | 0.00 | 0.00 | 0.00 | 29 | 1015.0 |
| 20260831214824 | 102 | 186 | 6.0 | 10.0 | 0.00 | 0.00 | 0.00 | 28 | 1015.2 |
| 20260831214322 | 104 | 204 | 8.0 | 11.0 | 0.00 | 0.00 | 0.00 | 27 | 1014.9 |
| 20260831213816 | 104 | 148 | 1.0 | 3.0 | 0.00 | 0.00 | 0.00 | 27 | 1015.1 |
| 20260831213313 | 104 | 46 | 2.0 | 7.0 | 0.00 | 0.00 | 0.00 | 27 | 1015.2 |
| 20260831212808 | 102 | 150 | 7.0 | 13.0 | 0.00 | 0.00 | 0.00 | 28 | 1015.4 |
| 20260831212306 | 102 | 196 | 5.0 | 11.0 | 0.00 | 0.00 | 0.00 | 28 | 1015.3 |
| 20260831211803 | 102 | 179 | 4.0 | 6.0 | 0.00 | 0.00 | 0.00 | 29 | 1015.4 |
| 20260831211258 | 103 | 282 | 6.0 | 8.0 | 0.00 | 0.00 | 0.00 | 28 | 1015.3 |
| 20260831210752 | 102 | 239 | 4.0 | 7.0 | 0.00 | 0.00 | 0.00 | 29 | 1015.6 |
| 20260831210249 | 101 | 181 | 6.0 | 9.0 | 0.00 | 0.00 | 0.00 | 29 | 1015.5 |
| 20260831205748 | 102 | 204 | 9.0 | 11.0 | 0.00 | 0.00 | 0.00 | 29 | 1015.5 |
| 20260831205244 | 102 | 197 | 5.0 | 8.0 | 0.00 | 0.00 | 0.00 | 29 | 1015.7 |
| 20260831204743 | 103 | 193 | 5.0 | 8.0 | 0.00 | 0.00 | 0.00 | 28 | 1015.7 |
| 20260831204243 | 101 | 15 | 1.0 | 6.0 | 0.00 | 0.00 | 0.00 | 30 | 1015.5 |
| 20260831203742 | 103 | 190 | 2.0 | 8.0 | 0.00 | 0.00 | 0.00 | 28 | 1015.6 |
| 20260831203237 | 103 | 188 | 2.0 | 8.0 | 0.00 | 0.00 | 0.00 | 28 | 1015.7 |
| 20260831202735 | 104 | 208 | 6.0 | 8.0 | 0.00 | 0.00 | 0.00 | 27 | 1015.8 |
| 20260831202230 | 103 | 205 | 1.0 | 13.0 | 0.00 | 0.00 | 0.00 | 29 | 1015.7 |
| 20260831201724 | 102 | 185 | 7.0 | 9.0 | 0.00 | 0.00 | 0.00 | 28 | 1015.8 |
| 20260831201219 | 102 | 90 | 1.0 | 14.0 | 0.00 | 0.00 | 0.00 | 29 | 1015.9 |
| 20260831200715 | 104 | 210 | 6.0 | 9.0 | 0.00 | 0.00 | 0.00 | 27 | 1015.9 |
| 20260831200214 | 102 | 173 | 1.0 | 7.0 | 0.00 | 0.00 | 0.00 | 29 | 1016.0 |
| 20260831195710 | 103 | 25 | 2.0 | 11.0 | 0.00 | 0.00 | 0.00 | 28 | 1015.8 |
| 20260831195205 | 102 | 248 | 5.0 | 10.0 | 0.00 | 0.00 | 0.00 | 29 | 1016.2 |
| 20260831194700 | 103 | 44 | 0.0 | 6.0 | 0.00 | 0.00 | 0.00 | 28 | 1016.2 |
| 20260831194155 | 103 | 327 | 1.0 | 8.0 | 0.00 | 0.00 | 0.00 | 28 | 1016.2 |
| 20260831193649 | 103 | 219 | 4.0 | 6.0 | 0.00 | 0.00 | 0.00 | 27 | 1016.3 |
| 20260831193145 | 103 | 253 | 5.0 | 11.0 | 0.00 | 0.00 | 0.00 | 27 | 1016.4 |
| 20260831192640 | 102 | 186 | 5.0 | 9.0 | 0.00 | 0.00 | 0.00 | 28 | 1016.4 |
| 20260831192135 | 103 | 62 | 4.0 | 8.0 | 0.00 | 0.00 | 0.00 | 28 | 1016.4 |
| 20260831191631 | 101 | 249 | 5.0 | 7.0 | 0.00 | 0.00 | 0.00 | 29 | 1016.5 |
| 20260831191127 | 102 | 248 | 5.0 | 9.0 | 0.00 | 0.00 | 0.00 | 30 | 1016.3 |
| 20260831190622 | 102 | 261 | 6.0 | 9.0 | 0.00 | 0.00 | 0.00 | 30 | 1016.5 |
| 20260831190121 | 102 | 196 | 3.0 | 4.0 | 0.00 | 0.00 | 0.00 | 29 | 1016.6 |
| 20260831185616 | 101 | 204 | 5.0 | 10.0 | 0.00 | 0.00 | 0.00 | 30 | 1016.6 |
| 20260831185112 | 103 | 193 | 5.0 | 6.0 | 0.00 | 0.00 | 0.00 | 29 | 1016.7 |
| 20260831184612 | 102 | 222 | 1.0 | 2.0 | 0.00 | 0.00 | 0.00 | 30 | 1016.9 |
| 20260831184107 | 102 | 161 | 1.0 | 4.0 | 0.00 | 0.00 | 0.00 | 30 | 1016.9 |
| 20260831183606 | 101 | 35 | 1.0 | 2.0 | 0.00 | 0.00 | 0.00 | 30 | 1016.9 |
| 20260831183101 | 102 | 191 | 5.0 | 8.0 | 0.00 | 0.00 | 0.00 | 30 | 1016.9 |
| 20260831182600 | 101 | 167 | 3.0 | 4.0 | 0.00 | 0.00 | 0.00 | 31 | 1017.0 |
| 20260831182056 | 100 | 143 | 1.0 | 7.0 | 0.00 | 0.00 | 0.00 | 31 | 1017.0 |
| 20260831181555 | 100 | 206 | 5.0 | 7.0 | 0.00 | 0.00 | 0.00 | 32 | 1017.1 |
| 20260831181050 | 100 | 207 | 6.0 | 9.0 | 0.00 | 0.00 | 0.00 | 31 | 1017.2 |
| 20260831180545 | 101 | 236 | 4.0 | 6.0 | 0.00 | 0.00 | 0.00 | 31 | 1017.0 |
| 20260831180040 | 100 | 201 | 2.0 | 10.0 | 0.00 | 0.00 | 0.00 | 29 | 1017.1 |
| 20260831175535 | 100 | 230 | 6.0 | 10.0 | 0.00 | 0.00 | 0.00 | 33 | 1017.2 |
| 20260831175032 | 100 | 140 | 2.0 | 6.0 | 0.00 | 0.00 | 0.00 | 32 | 1017.1 |
| 20260831174526 | 99 | 246 | 7.0 | 10.0 | 0.00 | 0.00 | 0.00 | 33 | 1017.4 |
| 20260831174020 | 99 | 173 | 6.0 | 10.0 | 0.00 | 0.00 | 0.00 | 34 | 1017.1 |
| 20260831173519 | 100 | 184 | 8.0 | 13.0 | 0.00 | 0.00 | 0.00 | 33 | 1017.4 |
| 20260831173016 | 99 | 192 | 3.0 | 3.0 | 0.00 | 0.00 | 0.00 | 34 | 1017.7 |
| 20260831172510 | 99 | 241 | 7.0 | 10.0 | 0.00 | 0.00 | 0.00 | 34 | 1017.7 |
| 20260831172005 | 98 | 201 | 7.0 | 11.0 | 0.00 | 0.00 | 0.00 | 36 | 1017.7 |
| 20260831171501 | 98 | 206 | 3.0 | 10.0 | 0.00 | 0.00 | 0.00 | 36 | 1017.9 |
| 20260831170958 | 98 | 162 | 4.0 | 11.0 | 0.00 | 0.00 | 0.00 | 37 | 1017.8 |
| 20260831170454 | 98 | 186 | 3.0 | 7.0 | 0.00 | 0.00 | 0.00 | 37 | 1018.1 |
| 20260831165951 | 97 | 161 | 3.0 | 9.0 | 0.00 | 0.00 | 0.00 | 37 | 1018.0 |
| 20260831165446 | 97 | 199 | 6.0 | 9.0 | 0.00 | 0.00 | 0.00 | 37 | 1018.0 |
| 20260831164943 | 97 | 94 | 5.0 | 6.0 | 0.00 | 0.00 | 0.00 | 38 | 1018.1 |
| 20260831164438 | 98 | 159 | 5.0 | 8.0 | 0.00 | 0.00 | 0.00 | 37 | 1018.1 |
| 20260831163938 | 97 | 157 | 4.0 | 7.0 | 0.00 | 0.00 | 0.00 | 39 | 1018.1 |
| 20260831163434 | 96 | 255 | 4.0 | 10.0 | 0.00 | 0.00 | 0.00 | 40 | 1018.0 |
| 20260831162932 | 96 | 200 | 6.0 | 9.0 | 0.00 | 0.00 | 0.00 | 40 | 1018.0 |
| 20260831162428 | 95 | 224 | 6.0 | 10.0 | 0.00 | 0.00 | 0.00 | 40 | 1017.8 |
| 20260831161926 | 96 | 224 | 5.0 | 11.0 | 0.00 | 0.00 | 0.00 | 40 | 1018.1 |
| 20260831161423 | 96 | 190 | 3.0 | 6.0 | 0.00 | 0.00 | 0.00 | 41 | 1018.0 |
| 20260831160919 | 95 | 202 | 5.0 | 10.0 | 0.00 | 0.00 | 0.00 | 42 | 1018.1 |
| 20260831160413 | 95 | 224 | 5.0 | 8.0 | 0.00 | 0.00 | 0.00 | 41 | 1018.0 |
| 20260831155908 | 95 | 196 | 9.0 | 10.0 | 0.00 | 0.00 | 0.00 | 42 | 1018.0 |
| 20260831155403 | 94 | 98 | 5.0 | 8.0 | 0.00 | 0.00 | 0.00 | 42 | 1018.0 |
| 20260831154858 | 94 | 161 | 8.0 | 10.0 | 0.00 | 0.00 | 0.00 | 43 | 1018.0 |
| 20260831154355 | 94 | 258 | 6.0 | 10.0 | 0.00 | 0.00 | 0.00 | 43 | 1017.9 |
| 20260831153852 | 93 | 273 | 5.0 | 7.0 | 0.00 | 0.00 | 0.00 | 43 | 1018.0 |
| 20260831153349 | 93 | 160 | 3.0 | 8.0 | 0.00 | 0.00 | 0.00 | 44 | 1018.0 |
| 20260831152845 | 92 | 200 | 5.0 | 9.0 | 0.00 | 0.00 | 0.00 | 45 | 1018.2 |
| 20260831152340 | 91 | 169 | 3.0 | 9.0 | 0.00 | 0.00 | 0.00 | 45 | 1018.0 |
| 20260831151835 | 91 | 205 | 5.0 | 7.0 | 0.00 | 0.00 | 0.00 | 46 | 1017.9 |
| 20260831151334 | 91 | 256 | 6.0 | 10.0 | 0.00 | 0.00 | 0.00 | 46 | 1018.1 |
| 20260831150829 | 90 | 242 | 4.0 | 11.0 | 0.00 | 0.00 | 0.00 | 47 | 1018.1 |
| 20260831150325 | 91 | 178 | 10.0 | 13.0 | 0.00 | 0.00 | 0.00 | 46 | 1018.1 |
| 20260831145823 | 90 | 199 | 4.0 | 7.0 | 0.00 | 0.00 | 0.00 | 47 | 1018.1 |
| 20260831145320 | 90 | 199 | 7.0 | 10.0 | 0.00 | 0.00 | 0.00 | 47 | 1018.0 |
| 20260831144816 | 90 | 177 | 5.0 | 7.0 | 0.00 | 0.00 | 0.00 | 48 | 1018.0 |
| 20260831144312 | 89 | 197 | 4.0 | 8.0 | 0.00 | 0.00 | 0.00 | 48 | 1018.1 |
| 20260831143812 | 89 | 207 | 2.0 | 3.0 | 0.00 | 0.00 | 0.00 | 49 | 1018.3 |
| 20260831143307 | 88 | 160 | 6.0 | 9.0 | 0.00 | 0.00 | 0.00 | 49 | 1018.1 |
| 20260831142802 | 88 | 146 | 2.0 | 6.0 | 0.00 | 0.00 | 0.00 | 50 | 1018.0 |
| 20260831142257 | 88 | 188 | 3.0 | 7.0 | 0.00 | 0.00 | 0.00 | 50 | 1018.1 |
| 20260831141751 | 88 | 184 | 4.0 | 6.0 | 0.00 | 0.00 | 0.00 | 51 | 1018.1 |
| 20260831141246 | 87 | 155 | 4.0 | 6.0 | 0.00 | 0.00 | 0.00 | 51 | 1018.2 |
| 20260831140740 | 87 | 164 | 5.0 | 7.0 | 0.00 | 0.00 | 0.00 | 51 | 1018.2 |
| 20260831140235 | 86 | 160 | 8.0 | 10.0 | 0.00 | 0.00 | 0.00 | 51 | 1018.2 |
| 20260831135732 | 86 | 207 | 2.0 | 8.0 | 0.00 | 0.00 | 0.00 | 51 | 1018.2 |
| 20260831135229 | 86 | 180 | 4.0 | 6.0 | 0.00 | 0.00 | 0.00 | 51 | 1018.1 |
| 20260831134724 | 86 | 178 | 3.0 | 6.0 | 0.00 | 0.00 | 0.00 | 51 | 1018.2 |
| 20260831134221 | 86 | 175 | 2.0 | 6.0 | 0.00 | 0.00 | 0.00 | 51 | 1018.3 |
| 20260831133719 | 85 | 186 | 3.0 | 4.0 | 0.00 | 0.00 | 0.00 | 51 | 1018.1 |
| 20260831133214 | 85 | 169 | 4.0 | 7.0 | 0.00 | 0.00 | 0.00 | 51 | 1018.3 |
| 20260831132709 | 85 | 187 | 2.0 | 6.0 | 0.00 | 0.00 | 0.00 | 52 | 1018.2 |
| 20260831132208 | 84 | 163 | 1.0 | 2.0 | 0.00 | 0.00 | 0.00 | 52 | 1018.0 |
| 20260831131703 | 84 | 153 | 1.0 | 2.0 | 0.00 | 0.00 | 0.00 | 52 | 1017.8 |
| 20260831131200 | 83 | 121 | 0.0 | 3.0 | 0.00 | 0.00 | 0.00 | 53 | 1017.8 |
| 20260831130654 | 83 | 179 | 2.0 | 2.0 | 0.00 | 0.00 | 0.00 | 53 | 1018.0 |
| 20260831130150 | 82 | 193 | 2.0 | 3.0 | 0.00 | 0.00 | 0.00 | 53 | 1017.7 |
| 20260831125648 | 82 | 164 | 1.0 | 1.0 | 0.00 | 0.00 | 0.00 | 54 | 1017.5 |
| 20260831125144 | 82 | 125 | 0.0 | 1.0 | 0.00 | 0.00 | 0.00 | 54 | 1017.8 |
| 20260831124639 | 81 | 116 | 0.0 | 0.0 | 0.00 | 0.00 | 0.00 | 54 | 1017.7 |
| 20260831124135 | 81 | 173 | 2.0 | 2.0 | 0.00 | 0.00 | 0.00 | 55 | 1017.4 |
| 20260831123630 | 80 | 161 | 1.0 | 2.0 | 0.00 | 0.00 | 0.00 | 55 | 1017.5 |
| 20260831123129 | 80 | 143 | 1.0 | 1.0 | 0.00 | 0.00 | 0.00 | 55 | 1017.1 |